Regional Weather Roundup
Issued by NWS Cleveland, OH

Home | Current Version | Previous Version | Graphics & Text | Print | Product List | Glossary On
Versions: 1 2 3 4 5 6 7 8 9 10 11 12 13 14 15 16 17 18 19 20 21 22 23 24 25 26 27 28 29 30 31 32 33 34 35 36 37 38 39 40 41 42 43 44 45 46 47 48 49 50
000
ASUS41 KCLE 231710
RWRCLE
OHIO REGIONAL WEATHER ROUNDUP
NATIONAL WEATHER SERVICE CLEVELAND, OH
1200 PM EST TUE JAN 23 2018

NOTE: "FAIR" INDICATES FEW OR NO CLOUDS BELOW 12,000 FEET WITH NO
SIGNIFICANT WEATHER AND/OR OBSTRUCTIONS TO VISIBILITY.

OHZ001>008-015>018-024>027-034-035-043-044-231800-
   NORTHWEST OHIO

CITY           SKY/WX    TMP DP  RH WIND       PRES   REMARKS
DEFIANCE       CLOUDY    37  33  85 W13G24    29.67R
FINDLAY        CLOUDY    38  32  79 SW24G32   29.68R
TOLEDO EXPRESS CLOUDY    39  36  89 SW20G30   29.63R
TOLEDO EXEC    CLOUDY    40  33  76 SW26G36   29.64S
LIMA           NOT AVBL
$$

OHZ009>014-019>023-028>033-038-089-231800-
   NORTHEAST OHIO

CITY           SKY/WX    TMP DP  RH WIND       PRES   REMARKS
CLE-HOPKINS    CLOUDY    40  35  83 SW21G26   29.67S
CLE-LAKEFRONT  LGT RAIN  40  35  83 SW22G28   29.64S
CUY CO. ARPT   LGT RAIN  41  32  70 W17G23    29.64S
LORAIN-ELYRIA  CLOUDY    39  30  70 SW20G29   29.66R
ASHTABULA      LGT RAIN  40  35  83 SW15G28   29.62S
AKRON-CANTON   CLOUDY    40  30  67 W22G33    29.66F
WOOSTER        CLOUDY    37  32  82 SW22G28   29.68S
MANSFIELD      CLOUDY    36  34  92 SW15      29.67S
YOUNGSTOWN     CLOUDY    40  33  76 SW20      29.64R
$$

OHZ042-051>053-060>062-070>072-077>081-231800-
  SOUTHWEST OHIO

CITY           SKY/WX    TMP DP  RH WIND       PRES   REMARKS
CINC-COVINGTON CLOUDY    39  34  82 W14G26    29.85R
CINC-LUNKEN    CLOUDY    41  33  73 W16G26    29.88R
HAMILTON       PTSUNNY   41  34  76 SW13G22   29.85R
DAYTON         PTSUNNY   37  34  89 SW24G30   29.79R
WRIGHT-PAT AFB CLOUDY    38  31  74 SW21      29.78R
DAYTON GENERAL CLOUDY    37  33  85 SW15      29.80R
WILMINGTON     CLOUDY    37  33  85 SW21      29.80R
$$

OHZ036-037-039>041-045>050-054>059-063>069-073>076-082>088-231800-
  CENTRAL AND SOUTHEAST OHIO

CITY           SKY/WX    TMP DP  RH WIND       PRES   REMARKS
COLUMBUS       CLOUDY    40  31  70 W23G33    29.77R
OSU AIRPORT    PTSUNNY   40  32  73 SW21G36   29.76R
BOLTON FIELD   CLOUDY    37  32  81 W15G28    29.78S
RICKENBACK AFB CLOUDY    38  33  81 W16G29    29.79R
NEWARK         CLOUDY    40  33  76 SW16G30   29.75S
MARION         CLOUDY    38  31  76 SW17G26   29.72R
LANCASTER      CLOUDY    39  32  76 W17G28    29.79S
ZANESVILLE     CLOUDY    41  31  67 W21G28    29.75S
NEW PHILLY     NOT AVBL
$$




USA.gov is the U.S. government's official web portal to all federal, state and local government web resources and services.